CSN2921 ZBTJ-ZUCK

Flight info

Callsign CSN2921
Flight time 2h 10m
Altitude 24600
Route K0846S1100 PEGSO4ZD PEGSO B215 GODON W43 ATERI W193 WJC W514 MIZ G212 NSH W30 SANUK W180 AKBEK AKBEK3J
Aircraft A319/M-SDE3FGHIRWY/LB1

Departure

Time 2026-04-16 10:59
Airport Tianjin Binhai International Airport (ZBTJ)

Arrival

Time 2026-04-16 13:10
Airport Chongqing Jiangbei International Airport (ZUCK)
Time Latitude Longitude Altitude Speed Heading
2026-04-16 10:53 39.12767 117.35052 21 ft 0 kts 314°
2026-04-16 10:54 39.12774 117.35043 21 ft 2 kts 312°
2026-04-16 10:55 39.12791 117.35010 21 ft 5 kts 297°
2026-04-16 10:55 39.12810 117.34946 21 ft 9 kts 277°
2026-04-16 10:55 39.12795 117.34856 21 ft 12 kts 244°
2026-04-16 10:55 39.12756 117.34748 21 ft 14 kts 262°
2026-04-16 10:56 39.12817 117.34649 21 ft 16 kts 335°
2026-04-16 10:56 39.12929 117.34582 21 ft 18 kts 335°
2026-04-16 10:56 39.13053 117.34508 21 ft 20 kts 335°
2026-04-16 10:56 39.13186 117.34430 21 ft 21 kts 335°
2026-04-16 10:57 39.13323 117.34335 21 ft 23 kts 334°
2026-04-16 10:57 39.13470 117.34240 21 ft 24 kts 333°
2026-04-16 10:57 39.13623 117.34141 21 ft 24 kts 336°
2026-04-16 10:57 39.13775 117.34042 22 ft 24 kts 296°
2026-04-16 10:58 39.13739 117.33873 21 ft 9 kts 234°
2026-04-16 10:58 39.13717 117.33854 21 ft 4 kts 196°
2026-04-16 10:58 39.13677 117.33863 21 ft 7 kts 158°
2026-04-16 10:58 39.13598 117.33913 21 ft 32 kts 154°
2026-04-16 10:59 39.13113 117.34210 22 ft 119 kts 154°
2026-04-16 10:59 39.12214 117.34782 378 ft 157 kts 152°
2026-04-16 10:59 39.11235 117.35429 1185 ft 164 kts 154°
2026-04-16 10:59 39.10232 117.36031 2136 ft 163 kts 155°
2026-04-16 11:00 39.09160 117.36665 2692 ft 178 kts 155°
2026-04-16 11:00 39.07986 117.37368 3236 ft 196 kts 154°
2026-04-16 11:00 39.06714 117.38139 3787 ft 213 kts 154°
2026-04-16 11:00 39.05330 117.38982 4358 ft 230 kts 154°
2026-04-16 11:01 39.03834 117.39898 4998 ft 248 kts 154°
2026-04-16 11:01 39.02259 117.40863 5847 ft 256 kts 154°
2026-04-16 11:01 39.00660 117.41842 6792 ft 259 kts 154°
2026-04-16 11:01 38.99036 117.42838 7703 ft 263 kts 153°
2026-04-16 11:02 38.97593 117.44247 8550 ft 267 kts 126°
2026-04-16 11:02 38.96890 117.46413 9390 ft 268 kts 95°
2026-04-16 11:02 38.97008 117.48793 10229 ft 270 kts 79°
2026-04-16 11:02 38.97339 117.51168 11027 ft 274 kts 78°
2026-04-16 11:03 38.97680 117.53567 11794 ft 278 kts 78°
2026-04-16 11:03 38.98006 117.56014 12543 ft 282 kts 78°
2026-04-16 11:03 38.98635 117.61062 13925 ft 293 kts 78°
2026-04-16 11:04 38.98953 117.63663 14465 ft 299 kts 78°
2026-04-16 11:04 38.99167 117.66334 14717 ft 304 kts 92°
2026-04-16 11:04 38.98550 117.68912 14762 ft 307 kts 124°
2026-04-16 11:04 38.97036 117.70784 14772 ft 303 kts 154°
2026-04-16 11:05 38.95045 117.71560 14783 ft 299 kts 175°
2026-04-16 11:05 38.92974 117.71843 14773 ft 299 kts 177°
2026-04-16 11:05 38.90898 117.71994 14763 ft 298 kts 187°
2026-04-16 11:05 38.88940 117.71294 14767 ft 293 kts 212°
2026-04-16 11:06 38.87397 117.69611 14776 ft 298 kts 237°
2026-04-16 11:06 38.86532 117.67136 14777 ft 319 kts 261°
2026-04-16 11:06 38.86184 117.64208 14777 ft 346 kts 265°
2026-04-16 11:06 38.85955 117.61033 14765 ft 361 kts 271°
2026-04-16 11:07 38.86151 117.57827 14768 ft 359 kts 282°
2026-04-16 11:07 38.86804 117.54752 14772 ft 357 kts 291°
2026-04-16 11:07 38.87648 117.51783 14770 ft 357 kts 292°
2026-04-16 11:07 38.88535 117.48779 14769 ft 357 kts 292°
2026-04-16 11:08 38.89395 117.45832 14769 ft 356 kts 292°
2026-04-16 11:08 38.90279 117.42768 14769 ft 367 kts 292°
2026-04-16 11:08 38.91155 117.39700 14769 ft 367 kts 291°
2026-04-16 11:08 38.91762 117.36523 14756 ft 369 kts 276°
2026-04-16 11:09 38.91548 117.33277 14763 ft 374 kts 257°
2026-04-16 11:09 38.90552 117.30180 14773 ft 378 kts 245°
2026-04-16 11:09 38.89315 117.27176 14770 ft 379 kts 244°
2026-04-16 11:09 38.88063 117.24200 14769 ft 380 kts 244°
2026-04-16 11:10 38.86828 117.21233 14770 ft 382 kts 244°
2026-04-16 11:10 38.85567 117.18179 14767 ft 390 kts 244°
2026-04-16 11:10 38.84305 117.15112 14769 ft 390 kts 244°
2026-04-16 11:10 38.83035 117.12026 14769 ft 390 kts 244°
2026-04-16 11:11 38.81765 117.08939 14769 ft 390 kts 244°
2026-04-16 11:11 38.80506 117.05880 14770 ft 389 kts 244°
2026-04-16 11:11 38.79244 117.02813 14770 ft 389 kts 244°
2026-04-16 11:11 38.77978 116.99742 14770 ft 388 kts 244°
2026-04-16 11:12 38.76735 116.96729 14770 ft 387 kts 244°
2026-04-16 11:12 38.75471 116.93669 14770 ft 387 kts 244°
2026-04-16 11:12 38.74211 116.90652 14769 ft 386 kts 244°
2026-04-16 11:12 38.72930 116.87620 14769 ft 385 kts 244°
2026-04-16 11:13 38.71656 116.84612 14769 ft 385 kts 244°
2026-04-16 11:13 38.70380 116.81606 14769 ft 385 kts 244°
2026-04-16 11:13 38.69102 116.78593 14769 ft 385 kts 244°
2026-04-16 11:13 38.67808 116.75549 14769 ft 385 kts 244°
2026-04-16 11:14 38.66535 116.72553 14769 ft 385 kts 244°
2026-04-16 11:14 38.65279 116.69525 14765 ft 384 kts 248°
2026-04-16 11:14 38.64413 116.66344 14768 ft 381 kts 259°
2026-04-16 11:14 38.64071 116.63007 14769 ft 378 kts 270°
2026-04-16 11:15 38.64110 116.59642 14770 ft 377 kts 274°
2026-04-16 11:15 38.64220 116.56267 14770 ft 377 kts 275°
2026-04-16 11:15 38.64334 116.52941 14769 ft 377 kts 274°
2026-04-16 11:15 38.64443 116.49564 14769 ft 377 kts 274°
2026-04-16 11:16 38.64543 116.46246 14769 ft 377 kts 274°
2026-04-16 11:16 38.64640 116.42877 14769 ft 377 kts 274°
2026-04-16 11:16 38.64733 116.39510 14769 ft 377 kts 274°
2026-04-16 11:16 38.64823 116.36173 14769 ft 377 kts 274°
2026-04-16 11:17 38.64912 116.32802 14769 ft 377 kts 273°
2026-04-16 11:17 38.64997 116.29498 14769 ft 377 kts 273°
2026-04-16 11:17 38.65083 116.26143 14769 ft 377 kts 273°
2026-04-16 11:17 38.65167 116.22774 14769 ft 377 kts 273°
2026-04-16 11:18 38.65251 116.19404 14769 ft 377 kts 273°
2026-04-16 11:18 38.65334 116.16058 14769 ft 377 kts 273°
2026-04-16 11:18 38.65441 116.12698 14766 ft 377 kts 277°
2026-04-16 11:18 38.65922 116.09443 14768 ft 375 kts 288°
2026-04-16 11:19 38.66907 116.06361 14896 ft 379 kts 299°
2026-04-16 11:19 38.68279 116.03455 15647 ft 381 kts 303°
2026-04-16 11:19 38.69693 116.00626 16546 ft 379 kts 303°
2026-04-16 11:19 38.71130 115.97768 17304 ft 380 kts 303°
2026-04-16 11:20 38.72544 115.94947 18003 ft 381 kts 303°
2026-04-16 11:20 38.73978 115.92077 18697 ft 383 kts 303°
2026-04-16 11:20 38.75406 115.89209 19370 ft 384 kts 302°
2026-04-16 11:20 38.76837 115.86330 20012 ft 385 kts 302°
2026-04-16 11:21 38.78277 115.83427 20627 ft 387 kts 302°
2026-04-16 11:21 38.79711 115.80533 21222 ft 389 kts 302°
2026-04-16 11:21 38.81162 115.77600 21805 ft 390 kts 302°
2026-04-16 11:21 38.82605 115.74680 22338 ft 392 kts 302°
2026-04-16 11:22 38.84070 115.71713 22854 ft 394 kts 301°
2026-04-16 11:22 38.85543 115.68725 23381 ft 396 kts 301°
2026-04-16 11:22 38.86998 115.65771 23883 ft 397 kts 301°
2026-04-16 11:22 38.88473 115.62774 24342 ft 399 kts 301°
2026-04-16 11:23 38.89951 115.59770 24538 ft 399 kts 300°
2026-04-16 11:23 38.91424 115.56771 24543 ft 398 kts 299°
2026-04-16 11:23 38.92585 115.53534 24535 ft 395 kts 286°
2026-04-16 11:23 38.93026 115.50094 24533 ft 394 kts 273°
2026-04-16 11:24 38.92762 115.46583 24527 ft 398 kts 260°
2026-04-16 11:24 38.91830 115.43212 24528 ft 403 kts 251°
2026-04-16 11:24 38.90715 115.39952 24518 ft 405 kts 251°
2026-04-16 11:24 38.89558 115.36626 24513 ft 407 kts 251°
2026-04-16 11:25 38.88393 115.33291 24512 ft 409 kts 250°
2026-04-16 11:25 38.87236 115.29979 24510 ft 411 kts 250°
2026-04-16 11:25 38.86064 115.26630 24509 ft 411 kts 250°
2026-04-16 11:25 38.84889 115.23279 24509 ft 411 kts 250°
2026-04-16 11:26 38.83728 115.19978 24509 ft 410 kts 250°
2026-04-16 11:26 38.82546 115.16621 24509 ft 410 kts 250°
2026-04-16 11:26 38.81381 115.13318 24509 ft 409 kts 250°
2026-04-16 11:26 38.80204 115.09986 24509 ft 408 kts 250°
2026-04-16 11:27 38.79034 115.06678 24509 ft 408 kts 249°
2026-04-16 11:27 38.77869 115.03388 24509 ft 407 kts 249°
2026-04-16 11:27 38.76694 115.00079 24509 ft 406 kts 249°
2026-04-16 11:27 38.75523 114.96781 24511 ft 408 kts 249°
2026-04-16 11:28 38.74343 114.93452 24510 ft 421 kts 249°
2026-04-16 11:28 38.73112 114.89987 24510 ft 432 kts 249°
2026-04-16 11:28 38.71849 114.86440 24509 ft 441 kts 249°
2026-04-16 11:28 38.70577 114.82875 24509 ft 447 kts 249°
2026-04-16 11:29 38.69286 114.79260 24508 ft 447 kts 249°
2026-04-16 11:29 38.67985 114.75626 24508 ft 447 kts 249°
2026-04-16 11:29 38.66702 114.72043 24508 ft 447 kts 249°
2026-04-16 11:29 38.65402 114.68413 24508 ft 447 kts 249°
2026-04-16 11:30 38.64116 114.64827 24509 ft 447 kts 249°
2026-04-16 11:30 38.62806 114.61178 24508 ft 447 kts 249°
2026-04-16 11:30 38.61512 114.57590 24509 ft 447 kts 248°
2026-04-16 11:30 38.60198 114.53976 24508 ft 447 kts 248°
2026-04-16 11:31 38.58897 114.50398 24509 ft 447 kts 248°
2026-04-16 11:31 38.57598 114.46815 24508 ft 447 kts 249°
2026-04-16 11:31 38.56285 114.43191 24508 ft 447 kts 249°
2026-04-16 11:31 38.54979 114.39587 24509 ft 447 kts 249°
2026-04-16 11:32 38.53678 114.36001 24508 ft 447 kts 249°
2026-04-16 11:32 38.52366 114.32385 24509 ft 448 kts 248°
2026-04-16 11:32 38.51054 114.28762 24509 ft 447 kts 248°
2026-04-16 11:32 38.49741 114.25145 24509 ft 448 kts 248°
2026-04-16 11:33 38.48432 114.21551 24509 ft 448 kts 248°
2026-04-16 11:33 38.47127 114.17973 24509 ft 447 kts 248°
2026-04-16 11:33 38.45815 114.14381 24509 ft 447 kts 248°
2026-04-16 11:33 38.44500 114.10791 24509 ft 447 kts 248°
2026-04-16 11:34 38.43182 114.07197 24508 ft 447 kts 248°
2026-04-16 11:34 38.41870 114.03621 24509 ft 448 kts 248°
2026-04-16 11:34 38.40555 114.00035 24509 ft 448 kts 248°
2026-04-16 11:34 38.39245 113.96461 24509 ft 448 kts 248°
2026-04-16 11:35 38.37913 113.92839 24509 ft 447 kts 248°
2026-04-16 11:35 38.36603 113.89280 24509 ft 447 kts 248°
2026-04-16 11:35 38.35287 113.85709 24509 ft 448 kts 248°
2026-04-16 11:35 38.33961 113.82117 24508 ft 448 kts 248°
2026-04-16 11:36 38.32630 113.78551 24509 ft 448 kts 248°
2026-04-16 11:36 38.31279 113.74963 24509 ft 448 kts 248°
2026-04-16 11:36 38.29930 113.71389 24509 ft 448 kts 248°
2026-04-16 11:36 38.28583 113.67825 24511 ft 449 kts 248°
2026-04-16 11:37 38.27235 113.64260 24513 ft 449 kts 248°
2026-04-16 11:37 38.25873 113.60661 24516 ft 450 kts 248°
2026-04-16 11:37 38.24511 113.57066 24520 ft 450 kts 248°
2026-04-16 11:37 38.23162 113.53510 24524 ft 451 kts 248°
2026-04-16 11:38 38.21807 113.49941 24528 ft 451 kts 248°
2026-04-16 11:38 38.20432 113.46323 24531 ft 451 kts 248°
2026-04-16 11:38 38.19073 113.42756 24533 ft 451 kts 248°
2026-04-16 11:38 38.17697 113.39148 24535 ft 451 kts 248°
2026-04-16 11:39 38.16331 113.35563 24534 ft 451 kts 248°
2026-04-16 11:39 38.14997 113.31992 24536 ft 451 kts 248°
2026-04-16 11:39 38.13664 113.28383 24535 ft 451 kts 248°
2026-04-16 11:39 38.11881 113.23569 24535 ft 451 kts 248°
2026-04-16 11:40 38.10982 113.21149 24535 ft 451 kts 248°
2026-04-16 11:40 38.09655 113.17588 24535 ft 451 kts 248°
2026-04-16 11:40 38.08305 113.13974 24535 ft 451 kts 248°
2026-04-16 11:40 38.06967 113.10400 24535 ft 451 kts 248°
2026-04-16 11:41 38.05611 113.06785 24535 ft 451 kts 248°
2026-04-16 11:41 38.04265 113.03198 24535 ft 451 kts 248°
2026-04-16 11:41 38.02916 112.99606 24540 ft 451 kts 248°
2026-04-16 11:41 38.01578 112.96049 24548 ft 451 kts 248°
2026-04-16 11:42 38.00223 112.92454 24553 ft 452 kts 248°
2026-04-16 11:42 37.98861 112.88844 24557 ft 452 kts 248°
2026-04-16 11:42 37.97504 112.85253 24559 ft 453 kts 248°
2026-04-16 11:42 37.96152 112.81682 24561 ft 453 kts 248°
2026-04-16 11:43 37.94784 112.78073 24561 ft 454 kts 248°
2026-04-16 11:43 37.93418 112.74477 24562 ft 454 kts 248°
2026-04-16 11:43 37.92047 112.70874 24562 ft 454 kts 248°
2026-04-16 11:43 37.90687 112.67305 24562 ft 454 kts 248°
2026-04-16 11:44 37.89310 112.63699 24561 ft 454 kts 247°
2026-04-16 11:44 37.87920 112.60097 24560 ft 454 kts 247°
2026-04-16 11:44 37.86469 112.56579 24560 ft 455 kts 245°
2026-04-16 11:44 37.84971 112.53040 24561 ft 455 kts 245°
2026-04-16 11:45 37.83485 112.49527 24561 ft 455 kts 245°
2026-04-16 11:45 37.81997 112.46011 24561 ft 455 kts 245°
2026-04-16 11:45 37.80493 112.42460 24561 ft 455 kts 245°
2026-04-16 11:45 37.79013 112.38972 24561 ft 455 kts 245°
2026-04-16 11:46 37.77521 112.35419 24561 ft 454 kts 246°
2026-04-16 11:46 37.76134 112.31849 24563 ft 454 kts 247°
2026-04-16 11:46 37.74754 112.28242 24562 ft 454 kts 247°
2026-04-16 11:46 37.73373 112.24637 24562 ft 454 kts 247°
2026-04-16 11:47 37.72008 112.21081 24562 ft 454 kts 247°
2026-04-16 11:47 37.70622 112.17477 24562 ft 454 kts 247°
2026-04-16 11:47 37.69252 112.13922 24562 ft 454 kts 247°
2026-04-16 11:47 37.67862 112.10320 24562 ft 454 kts 247°
2026-04-16 11:48 37.66476 112.06735 24562 ft 454 kts 247°
2026-04-16 11:48 37.65101 112.03181 24562 ft 454 kts 247°
2026-04-16 11:48 37.63703 111.99574 24562 ft 454 kts 247°
2026-04-16 11:48 37.62328 111.96030 24562 ft 454 kts 247°
2026-04-16 11:49 37.60926 111.92421 24562 ft 454 kts 247°
2026-04-16 11:49 37.59543 111.88863 24562 ft 454 kts 247°
2026-04-16 11:49 37.58165 111.85323 24562 ft 454 kts 247°
2026-04-16 11:49 37.56767 111.81736 24562 ft 454 kts 247°
2026-04-16 11:50 37.55367 111.78147 24562 ft 454 kts 247°
2026-04-16 11:50 37.53973 111.74580 24562 ft 454 kts 247°
2026-04-16 11:50 37.52594 111.71053 24562 ft 454 kts 247°
2026-04-16 11:50 37.51194 111.67477 24562 ft 454 kts 247°
2026-04-16 11:51 37.49789 111.63892 24562 ft 454 kts 247°
2026-04-16 11:51 37.48388 111.60323 24562 ft 454 kts 247°
2026-04-16 11:51 37.47006 111.56805 24562 ft 454 kts 247°
2026-04-16 11:51 37.45596 111.53219 24562 ft 454 kts 247°
2026-04-16 11:52 37.44207 111.49692 24562 ft 454 kts 247°
2026-04-16 11:52 37.42789 111.46094 24562 ft 454 kts 247°
2026-04-16 11:52 37.41386 111.42539 24562 ft 454 kts 247°
2026-04-16 11:52 37.39991 111.39007 24562 ft 454 kts 247°
2026-04-16 11:53 37.38585 111.35452 24562 ft 454 kts 247°
2026-04-16 11:53 37.37176 111.31888 24562 ft 455 kts 246°
2026-04-16 11:53 37.35774 111.28337 24562 ft 455 kts 246°
2026-04-16 11:53 37.34362 111.24768 24562 ft 455 kts 246°
2026-04-16 11:54 37.32954 111.21217 24562 ft 455 kts 246°
2026-04-16 11:54 37.31557 111.17699 24562 ft 455 kts 246°
2026-04-16 11:54 37.30142 111.14142 24562 ft 455 kts 246°
2026-04-16 11:54 37.28733 111.10605 24562 ft 455 kts 246°
2026-04-16 11:55 37.27319 111.07065 24561 ft 455 kts 246°
2026-04-16 11:55 37.25896 111.03506 24561 ft 455 kts 247°
2026-04-16 11:55 37.24471 110.99945 24561 ft 456 kts 247°
2026-04-16 11:55 37.23049 110.96395 24561 ft 456 kts 247°
2026-04-16 11:56 37.21624 110.92842 24561 ft 456 kts 247°
2026-04-16 11:56 37.20197 110.89287 24561 ft 457 kts 247°
2026-04-16 11:56 37.18770 110.85737 24562 ft 457 kts 247°
2026-04-16 11:56 37.17347 110.82197 24562 ft 457 kts 247°
2026-04-16 11:57 37.15920 110.78652 24562 ft 457 kts 247°
2026-04-16 11:57 37.14485 110.75090 24562 ft 457 kts 247°
2026-04-16 11:57 37.13036 110.71499 24562 ft 457 kts 247°
2026-04-16 11:57 37.11599 110.67943 24562 ft 457 kts 247°
2026-04-16 11:58 37.10177 110.64429 24561 ft 458 kts 247°
2026-04-16 11:58 37.08732 110.60860 24561 ft 459 kts 247°
2026-04-16 11:58 37.07290 110.57304 24561 ft 461 kts 248°
2026-04-16 11:58 37.05822 110.53689 24561 ft 462 kts 248°
2026-04-16 11:59 37.04366 110.50105 24561 ft 463 kts 248°
2026-04-16 11:59 37.02908 110.46521 24561 ft 464 kts 248°
2026-04-16 11:59 37.01448 110.42936 24561 ft 466 kts 248°
2026-04-16 11:59 36.99983 110.39341 24561 ft 467 kts 248°
2026-04-16 12:00 36.98509 110.35731 24561 ft 468 kts 248°
2026-04-16 12:00 36.97008 110.32055 24561 ft 470 kts 247°
2026-04-16 12:00 36.95529 110.28426 24561 ft 471 kts 247°
2026-04-16 12:00 36.94041 110.24781 24561 ft 472 kts 247°
2026-04-16 12:01 36.92550 110.21139 24561 ft 472 kts 247°
2026-04-16 12:01 36.91058 110.17499 24562 ft 472 kts 247°
2026-04-16 12:01 36.89555 110.13844 24560 ft 472 kts 247°
2026-04-16 12:02 36.86530 110.06571 24570 ft 472 kts 247°
2026-04-16 12:02 36.85026 110.02953 24576 ft 471 kts 247°
2026-04-16 12:02 36.83518 109.99319 24584 ft 471 kts 247°
2026-04-16 12:02 36.82015 109.95692 24591 ft 471 kts 247°
2026-04-16 12:03 36.80531 109.92112 24599 ft 471 kts 247°
2026-04-16 12:03 36.79013 109.88451 24607 ft 471 kts 247°
2026-04-16 12:03 36.77515 109.84839 24611 ft 471 kts 247°
2026-04-16 12:03 36.76016 109.81230 24614 ft 470 kts 247°
2026-04-16 12:04 36.74515 109.77620 24616 ft 470 kts 247°
2026-04-16 12:04 36.73008 109.74000 24616 ft 470 kts 247°
2026-04-16 12:04 36.71503 109.70388 24616 ft 471 kts 247°
2026-04-16 12:04 36.70000 109.66786 24616 ft 470 kts 247°
2026-04-16 12:05 36.68497 109.63188 24616 ft 471 kts 247°
2026-04-16 12:05 36.66987 109.59579 24616 ft 471 kts 247°
2026-04-16 12:05 36.65400 109.55993 24607 ft 475 kts 242°
2026-04-16 12:05 36.63211 109.52876 24610 ft 486 kts 226°
2026-04-16 12:06 36.60378 109.50544 24610 ft 499 kts 211°
2026-04-16 12:06 36.57049 109.49207 24610 ft 511 kts 195°
2026-04-16 12:06 36.53483 109.48801 24618 ft 517 kts 187°
2026-04-16 12:06 36.49898 109.48685 24617 ft 518 kts 186°
2026-04-16 12:07 36.46297 109.48625 24617 ft 518 kts 186°
2026-04-16 12:07 36.42713 109.48460 24617 ft 516 kts 189°
2026-04-16 12:07 36.39157 109.48044 24617 ft 513 kts 192°
2026-04-16 12:07 36.35637 109.47456 24617 ft 513 kts 193°
2026-04-16 12:08 36.32110 109.46848 24617 ft 513 kts 193°
2026-04-16 12:08 36.28597 109.46241 24617 ft 513 kts 193°
2026-04-16 12:08 36.25088 109.45638 24617 ft 513 kts 193°
2026-04-16 12:08 36.21526 109.45030 24616 ft 513 kts 193°
2026-04-16 12:09 36.18049 109.44440 24616 ft 513 kts 193°
2026-04-16 12:09 36.14485 109.43835 24616 ft 513 kts 193°
2026-04-16 12:09 36.10970 109.43241 24617 ft 513 kts 193°
2026-04-16 12:09 36.07451 109.42648 24617 ft 513 kts 193°
2026-04-16 12:10 36.03931 109.42054 24617 ft 513 kts 193°
2026-04-16 12:10 36.00400 109.41459 24617 ft 513 kts 193°
2026-04-16 12:10 35.96874 109.40865 24617 ft 513 kts 193°
2026-04-16 12:10 35.93345 109.40273 24617 ft 513 kts 193°
2026-04-16 12:11 35.89818 109.39681 24616 ft 513 kts 193°
2026-04-16 12:11 35.86270 109.39089 24616 ft 513 kts 193°
2026-04-16 12:11 35.82752 109.38493 24616 ft 512 kts 194°
2026-04-16 12:11 35.79264 109.37737 24617 ft 510 kts 197°
2026-04-16 12:12 35.75818 109.36757 24617 ft 507 kts 200°
2026-04-16 12:12 35.72444 109.35551 24617 ft 505 kts 203°
2026-04-16 12:12 35.69139 109.34220 24618 ft 505 kts 203°
2026-04-16 12:12 35.65816 109.32857 24617 ft 505 kts 203°
2026-04-16 12:13 35.62480 109.31490 24617 ft 505 kts 203°
2026-04-16 12:13 35.59145 109.30132 24616 ft 505 kts 203°
2026-04-16 12:13 35.55837 109.28793 24616 ft 505 kts 203°
2026-04-16 12:13 35.52491 109.27445 24616 ft 505 kts 203°
2026-04-16 12:14 35.49155 109.26106 24616 ft 505 kts 203°
2026-04-16 12:14 35.45855 109.24784 24616 ft 505 kts 203°
2026-04-16 12:14 35.42524 109.23453 24616 ft 505 kts 203°
2026-04-16 12:14 35.39182 109.22118 24616 ft 505 kts 203°
2026-04-16 12:15 35.35847 109.20787 24616 ft 505 kts 203°
2026-04-16 12:15 35.32507 109.19455 24616 ft 505 kts 203°
2026-04-16 12:15 35.29163 109.18124 24617 ft 505 kts 203°
2026-04-16 12:15 35.25867 109.16812 24617 ft 505 kts 203°
2026-04-16 12:16 35.22529 109.15485 24617 ft 505 kts 203°
2026-04-16 12:16 35.19181 109.14156 24617 ft 504 kts 203°
2026-04-16 12:16 35.15864 109.12839 24617 ft 504 kts 203°
2026-04-16 12:16 35.12530 109.11518 24617 ft 504 kts 203°
2026-04-16 12:17 35.09226 109.10210 24617 ft 504 kts 203°
2026-04-16 12:17 35.05882 109.08886 24617 ft 504 kts 203°
2026-04-16 12:17 35.02590 109.07585 24616 ft 504 kts 203°
2026-04-16 12:17 34.99235 109.06258 24615 ft 506 kts 203°
2026-04-16 12:18 34.95906 109.04942 24615 ft 509 kts 202°
2026-04-16 12:18 34.92521 109.03606 24614 ft 513 kts 202°
2026-04-16 12:18 34.89144 109.02278 24613 ft 516 kts 202°
2026-04-16 12:18 34.85709 109.00936 24615 ft 519 kts 202°
2026-04-16 12:19 34.82250 108.99586 24615 ft 519 kts 201°
2026-04-16 12:19 34.78830 108.98301 24616 ft 521 kts 201°
2026-04-16 12:19 34.75349 108.97049 24616 ft 521 kts 200°
2026-04-16 12:19 34.71893 108.95822 24616 ft 522 kts 200°
2026-04-16 12:20 34.68446 108.94595 24616 ft 522 kts 200°
2026-04-16 12:20 34.64945 108.93340 24616 ft 522 kts 200°
2026-04-16 12:20 34.61469 108.92196 24616 ft 523 kts 198°
2026-04-16 12:20 34.57896 108.91251 24616 ft 526 kts 194°
2026-04-16 12:21 34.54319 108.90548 24616 ft 527 kts 191°
2026-04-16 12:21 34.50658 108.89949 24617 ft 527 kts 191°
2026-04-16 12:21 34.47043 108.89375 24616 ft 527 kts 191°
2026-04-16 12:21 34.42215 108.88606 24617 ft 527 kts 191°
2026-04-16 12:22 34.39800 108.88217 24617 ft 527 kts 191°
2026-04-16 12:22 34.36199 108.87632 24616 ft 527 kts 191°
2026-04-16 12:22 34.32547 108.87036 24616 ft 527 kts 191°
2026-04-16 12:22 34.28951 108.86448 24617 ft 527 kts 191°
2026-04-16 12:23 34.25318 108.85734 24616 ft 524 kts 195°
2026-04-16 12:23 34.21833 108.84625 24616 ft 521 kts 202°
2026-04-16 12:23 34.18484 108.83099 24616 ft 517 kts 208°
2026-04-16 12:23 34.15227 108.81221 24617 ft 515 kts 211°
2026-04-16 12:24 34.12044 108.79279 24617 ft 515 kts 211°
2026-04-16 12:24 34.08855 108.77314 24617 ft 514 kts 212°
2026-04-16 12:24 34.05710 108.75382 24617 ft 515 kts 211°
2026-04-16 12:24 34.02492 108.73417 24617 ft 515 kts 211°
2026-04-16 12:25 33.99321 108.71491 24616 ft 515 kts 211°
2026-04-16 12:25 33.96114 108.69551 24617 ft 515 kts 211°
2026-04-16 12:25 33.92910 108.67617 24617 ft 515 kts 211°
2026-04-16 12:25 33.89760 108.65721 24616 ft 515 kts 211°
2026-04-16 12:26 33.86552 108.63799 24616 ft 515 kts 211°
2026-04-16 12:26 33.83350 108.61887 24616 ft 515 kts 211°
2026-04-16 12:26 33.80132 108.59965 24616 ft 515 kts 211°
2026-04-16 12:26 33.76915 108.58041 24616 ft 515 kts 211°
2026-04-16 12:27 33.73753 108.56150 24616 ft 515 kts 211°
2026-04-16 12:27 33.70532 108.54222 24616 ft 515 kts 211°
2026-04-16 12:27 33.66270 108.51673 24617 ft 515 kts 211°
2026-04-16 12:27 33.64119 108.50388 24616 ft 515 kts 211°
2026-04-16 12:28 33.60939 108.48487 24616 ft 515 kts 211°
2026-04-16 12:28 33.57713 108.46561 24617 ft 515 kts 211°
2026-04-16 12:28 33.54546 108.44673 24617 ft 515 kts 211°
2026-04-16 12:28 33.50280 108.42131 24617 ft 515 kts 211°
2026-04-16 12:29 33.48160 108.40869 24616 ft 515 kts 211°
2026-04-16 12:29 33.44949 108.38959 24616 ft 515 kts 211°
2026-04-16 12:29 33.41724 108.37044 24616 ft 515 kts 211°
2026-04-16 12:29 33.38547 108.35158 24616 ft 515 kts 211°
2026-04-16 12:30 33.35337 108.33245 24617 ft 515 kts 211°
2026-04-16 12:30 33.32109 108.31357 24617 ft 517 kts 209°
2026-04-16 12:30 33.28856 108.29652 24617 ft 518 kts 207°
2026-04-16 12:30 33.25529 108.27989 24617 ft 518 kts 206°
2026-04-16 12:31 33.22183 108.26331 24617 ft 518 kts 206°
2026-04-16 12:31 33.18889 108.24705 24616 ft 518 kts 206°
2026-04-16 12:31 33.15553 108.23058 24616 ft 518 kts 206°
2026-04-16 12:31 33.12222 108.21414 24617 ft 518 kts 206°
2026-04-16 12:32 33.08893 108.19769 24615 ft 520 kts 206°
2026-04-16 12:32 33.05627 108.18136 24870 ft 497 kts 201°
2026-04-16 12:32 33.02580 108.16612 25338 ft 462 kts 202°
2026-04-16 12:32 32.99616 108.15138 25618 ft 460 kts 203°
2026-04-16 12:33 32.96659 108.13677 25935 ft 461 kts 203°
2026-04-16 12:33 32.93730 108.12237 26266 ft 462 kts 203°
2026-04-16 12:33 32.90752 108.10778 26626 ft 461 kts 204°
2026-04-16 12:33 32.86795 108.08858 27155 ft 460 kts 203°
2026-04-16 12:34 32.84811 108.07911 27437 ft 459 kts 203°
2026-04-16 12:34 32.81894 108.06537 27869 ft 457 kts 203°
2026-04-16 12:34 32.78949 108.05158 28206 ft 453 kts 204°
2026-04-16 12:34 32.76018 108.03732 27640 ft 454 kts 204°
2026-04-16 12:35 32.72172 108.01826 26340 ft 450 kts 204°
2026-04-16 12:35 32.70265 108.00880 25741 ft 455 kts 204°
2026-04-16 12:35 32.67316 107.99423 25075 ft 462 kts 203°
2026-04-16 12:35 32.64324 107.97952 24708 ft 465 kts 203°
2026-04-16 12:36 32.60373 107.96021 24621 ft 468 kts 203°
2026-04-16 12:36 32.58357 107.95039 24618 ft 468 kts 203°
2026-04-16 12:36 32.55346 107.93572 24617 ft 468 kts 203°
2026-04-16 12:36 32.52360 107.92119 24617 ft 468 kts 203°
2026-04-16 12:37 32.49337 107.90649 24616 ft 468 kts 203°
2026-04-16 12:37 32.46331 107.89188 24616 ft 468 kts 203°
2026-04-16 12:37 32.43362 107.87745 24616 ft 468 kts 203°
2026-04-16 12:37 32.40350 107.86283 24616 ft 468 kts 203°
2026-04-16 12:38 32.37337 107.84821 24616 ft 468 kts 203°
2026-04-16 12:38 32.34342 107.83369 24616 ft 468 kts 203°
2026-04-16 12:38 32.31353 107.81921 24616 ft 468 kts 203°
2026-04-16 12:38 32.28330 107.80457 24616 ft 468 kts 203°
2026-04-16 12:39 32.25304 107.78993 24616 ft 468 kts 203°
2026-04-16 12:39 32.22311 107.77546 24616 ft 468 kts 203°
2026-04-16 12:39 32.18301 107.75609 24616 ft 468 kts 203°
2026-04-16 12:39 32.16298 107.74642 24616 ft 468 kts 203°
2026-04-16 12:40 32.13313 107.73202 24616 ft 468 kts 203°
2026-04-16 12:40 32.10289 107.71744 24614 ft 468 kts 203°
2026-04-16 12:40 32.07296 107.70302 24611 ft 468 kts 203°
2026-04-16 12:40 32.04271 107.68845 24607 ft 469 kts 203°
2026-04-16 12:41 32.01278 107.67406 24602 ft 469 kts 203°
2026-04-16 12:41 31.98246 107.65949 24598 ft 469 kts 203°
2026-04-16 12:41 31.95218 107.64494 24595 ft 469 kts 203°
2026-04-16 12:41 31.92210 107.63046 24594 ft 469 kts 203°
2026-04-16 12:42 31.89187 107.61590 24594 ft 469 kts 203°
2026-04-16 12:42 31.86192 107.60155 24592 ft 469 kts 203°
2026-04-16 12:42 31.83154 107.58704 24592 ft 469 kts 203°
2026-04-16 12:42 31.80133 107.57262 24592 ft 469 kts 203°
2026-04-16 12:43 31.77144 107.55834 24592 ft 469 kts 203°
2026-04-16 12:43 31.74145 107.54402 24592 ft 469 kts 203°
2026-04-16 12:43 31.71110 107.52954 24592 ft 469 kts 203°
2026-04-16 12:43 31.68124 107.51530 24592 ft 469 kts 203°
2026-04-16 12:44 31.65110 107.50092 24592 ft 469 kts 203°
2026-04-16 12:44 31.62084 107.48650 24592 ft 469 kts 203°
2026-04-16 12:44 31.59081 107.47220 24585 ft 455 kts 203°
2026-04-16 12:44 31.56241 107.45869 24589 ft 429 kts 203°
2026-04-16 12:45 31.53527 107.44578 24592 ft 421 kts 203°
2026-04-16 12:45 31.49917 107.42860 24592 ft 421 kts 203°
2026-04-16 12:45 31.48118 107.42005 24592 ft 421 kts 203°
2026-04-16 12:45 31.45390 107.40709 24470 ft 422 kts 203°
2026-04-16 12:46 31.42703 107.39433 24221 ft 420 kts 203°
2026-04-16 12:46 31.39989 107.38145 23969 ft 418 kts 202°
2026-04-16 12:46 31.37331 107.36884 23720 ft 415 kts 202°
2026-04-16 12:46 31.34650 107.35614 23468 ft 414 kts 202°
2026-04-16 12:47 31.32008 107.34361 23221 ft 414 kts 202°
2026-04-16 12:47 31.29330 107.33080 22969 ft 415 kts 202°
2026-04-16 12:47 31.26651 107.31801 22717 ft 416 kts 202°
2026-04-16 12:47 31.23968 107.30524 22466 ft 416 kts 202°
2026-04-16 12:48 31.21295 107.29256 22215 ft 415 kts 202°
2026-04-16 12:48 31.18643 107.28001 21966 ft 414 kts 201°
2026-04-16 12:48 31.15966 107.26736 21714 ft 413 kts 201°
2026-04-16 12:48 31.13312 107.25484 21463 ft 412 kts 201°
2026-04-16 12:49 31.10665 107.24236 21213 ft 411 kts 201°
2026-04-16 12:49 31.08023 107.22993 20962 ft 410 kts 201°
2026-04-16 12:49 31.05408 107.21763 20714 ft 409 kts 201°
2026-04-16 12:49 31.02775 107.20526 20463 ft 408 kts 201°
2026-04-16 12:50 31.00140 107.19292 20211 ft 407 kts 202°
2026-04-16 12:50 30.97531 107.18070 19962 ft 406 kts 202°
2026-04-16 12:50 30.94917 107.16845 19711 ft 406 kts 202°
2026-04-16 12:50 30.92301 107.15619 19460 ft 406 kts 202°
2026-04-16 12:51 30.89673 107.14388 19207 ft 405 kts 203°
2026-04-16 12:51 30.87078 107.13178 18958 ft 405 kts 203°
2026-04-16 12:51 30.84468 107.11961 18707 ft 404 kts 203°
2026-04-16 12:51 30.80980 107.10332 18371 ft 402 kts 203°
2026-04-16 12:52 30.79274 107.09534 18206 ft 401 kts 203°
2026-04-16 12:52 30.76693 107.08329 17928 ft 400 kts 203°
2026-04-16 12:52 30.74120 107.07128 17584 ft 398 kts 203°
2026-04-16 12:52 30.71581 107.05943 17110 ft 396 kts 203°
2026-04-16 12:53 30.69026 107.04751 16515 ft 392 kts 202°
2026-04-16 12:53 30.66502 107.03574 15901 ft 389 kts 202°
2026-04-16 12:53 30.64028 107.02421 15286 ft 386 kts 202°
2026-04-16 12:53 30.61540 107.01262 14663 ft 383 kts 202°
2026-04-16 12:54 30.59099 107.00126 14050 ft 380 kts 202°
2026-04-16 12:54 30.56648 106.98986 13430 ft 378 kts 202°
2026-04-16 12:54 30.54246 106.97869 12820 ft 375 kts 202°
2026-04-16 12:54 30.51835 106.96749 12208 ft 373 kts 202°
2026-04-16 12:55 30.49462 106.95647 11602 ft 370 kts 202°
2026-04-16 12:55 30.47073 106.94540 11030 ft 367 kts 202°
2026-04-16 12:55 30.44768 106.93472 10805 ft 352 kts 202°
2026-04-16 12:55 30.42518 106.92430 10589 ft 338 kts 202°
2026-04-16 12:56 30.40399 106.91448 10400 ft 326 kts 202°
2026-04-16 12:56 30.38329 106.90490 10244 ft 313 kts 202°
2026-04-16 12:56 30.36344 106.89571 10118 ft 300 kts 202°
2026-04-16 12:56 30.34465 106.88702 9995 ft 289 kts 202°
2026-04-16 12:57 30.32597 106.87837 9596 ft 288 kts 202°
2026-04-16 12:57 30.30732 106.86975 9237 ft 286 kts 202°
2026-04-16 12:57 30.28895 106.86126 8889 ft 284 kts 202°
2026-04-16 12:57 30.27080 106.85287 8548 ft 283 kts 203°
2026-04-16 12:58 30.25247 106.84441 8204 ft 281 kts 203°
2026-04-16 12:58 30.22844 106.83331 7806 ft 277 kts 203°
2026-04-16 12:58 30.21687 106.82798 7792 ft 268 kts 203°
2026-04-16 12:58 30.20003 106.82022 7756 ft 255 kts 203°
2026-04-16 12:59 30.18382 106.81276 7713 ft 242 kts 203°
2026-04-16 12:59 30.16379 106.80353 7662 ft 227 kts 203°
2026-04-16 12:59 30.15408 106.79906 7636 ft 219 kts 203°
2026-04-16 13:00 30.12627 106.78625 7446 ft 215 kts 203°
2026-04-16 13:00 30.11246 106.77988 7311 ft 215 kts 203°
2026-04-16 13:00 30.09831 106.77340 6974 ft 220 kts 201°
2026-04-16 13:00 30.08410 106.76809 6903 ft 210 kts 198°
2026-04-16 13:01 30.07071 106.76353 6884 ft 194 kts 198°
2026-04-16 13:01 30.05826 106.75932 6874 ft 176 kts 198°
2026-04-16 13:01 30.04709 106.75552 6867 ft 159 kts 199°
2026-04-16 13:01 30.03686 106.75191 6883 ft 153 kts 200°
2026-04-16 13:02 30.02668 106.74818 6889 ft 154 kts 200°
2026-04-16 13:02 30.01641 106.74446 6890 ft 154 kts 199°
2026-04-16 13:02 30.00626 106.74082 6846 ft 155 kts 199°
2026-04-16 13:02 29.99587 106.73714 6660 ft 154 kts 199°
2026-04-16 13:03 29.98577 106.73361 6456 ft 153 kts 199°
2026-04-16 13:03 29.97557 106.73007 6252 ft 153 kts 199°
2026-04-16 13:03 29.96541 106.72656 6049 ft 153 kts 199°
2026-04-16 13:03 29.95515 106.72303 5845 ft 153 kts 199°
2026-04-16 13:04 29.94508 106.71957 5644 ft 153 kts 199°
2026-04-16 13:04 29.93488 106.71607 5440 ft 152 kts 199°
2026-04-16 13:04 29.92467 106.71256 5236 ft 152 kts 199°
2026-04-16 13:04 29.91453 106.70908 5034 ft 152 kts 199°
2026-04-16 13:05 29.90450 106.70564 4833 ft 152 kts 199°
2026-04-16 13:05 29.89432 106.70214 4630 ft 152 kts 199°
2026-04-16 13:05 29.88081 106.69754 4360 ft 151 kts 199°
2026-04-16 13:05 29.87420 106.69528 4246 ft 150 kts 199°
2026-04-16 13:06 29.86457 106.69197 4025 ft 140 kts 199°
2026-04-16 13:06 29.85226 106.68771 3780 ft 139 kts 200°
2026-04-16 13:06 29.84611 106.68556 3658 ft 139 kts 200°
2026-04-16 13:06 29.83681 106.68232 3475 ft 138 kts 199°
2026-04-16 13:07 29.82773 106.67917 3295 ft 138 kts 199°
2026-04-16 13:07 29.81843 106.67595 3111 ft 138 kts 199°
2026-04-16 13:07 29.80921 106.67276 2928 ft 138 kts 199°
2026-04-16 13:07 29.80008 106.66960 2748 ft 138 kts 199°
2026-04-16 13:08 29.78776 106.66534 2503 ft 138 kts 199°
2026-04-16 13:08 29.77867 106.66219 2322 ft 138 kts 199°
2026-04-16 13:08 29.77255 106.66007 2200 ft 138 kts 199°
2026-04-16 13:08 29.76334 106.65689 2017 ft 138 kts 199°
2026-04-16 13:09 29.75417 106.65372 1839 ft 138 kts 199°
2026-04-16 13:09 29.74495 106.65053 1648 ft 137 kts 199°
2026-04-16 13:09 29.73587 106.64738 1469 ft 137 kts 199°
2026-04-16 13:09 29.72706 106.64432 1374 ft 122 kts 198°
2026-04-16 13:10 29.71869 106.64140 1374 ft 67 kts 196°
2026-04-16 13:10 29.71691 106.64053 1374 ft 31 kts 226°
2026-04-16 13:10 29.71637 106.63981 1374 ft 2 kts 227°
2026-04-16 13:10 29.71617 106.63957 1374 ft 5 kts 227°
2026-04-16 13:11 29.71582 106.63887 1374 ft 9 kts 268°
2026-04-16 13:11 29.71607 106.63848 1374 ft 10 kts 345°
2026-04-16 13:11 29.71689 106.63865 1374 ft 13 kts 15°
2026-04-16 13:11 29.71788 106.63899 1374 ft 16 kts 15°
2026-04-16 13:12 29.71893 106.63924 1374 ft 7 kts 350°
2026-04-16 13:12 29.71929 106.63884 1374 ft 8 kts 291°
2026-04-16 13:12 29.71947 106.63852 1374 ft 4 kts 324°
2026-04-16 13:12 29.71976 106.63842 1374 ft 4 kts 340°
2026-04-16 13:13 29.72018 106.63824 1374 ft 5 kts 339°
2026-04-16 13:13 29.72032 106.63818 1374 ft 1 kts 341°
2026-04-16 13:13 29.72039 106.63815 1374 ft 1 kts 341°
2026-04-16 13:13 29.72046 106.63812 1374 ft 0 kts 341°
2026-04-16 13:14 29.72051 106.63811 1374 ft 0 kts 341°
2026-04-16 13:14 29.72053 106.63810 1374 ft 0 kts 341°